,,,PA_Meas_PMT16A,,PR_Meas_QMR101_102,,RH_Meas_QMH101,,SR_Meas_QMS101,,TA_Meas_QMH101,,GenWind,,GenWind,
date,time,status,PA,status,PR,status,RH,status,SR,status,TA,status,DirAvg,status,SpdAvg,
2008-10-26, 00:00:04,VALID,1003.53,VALID,0,VALID,86.5191,VALID,0,VALID,26.3148,VALID,29,VALID,1.15,
2008-10-26, 00:01:04,VALID,1003.51,VALID,0,VALID,86.5268,VALID,0,VALID,26.2933,VALID,47,VALID,0.823828,
2008-10-26, 00:02:04,VALID,1003.47,VALID,0,VALID,86.6793,VALID,0,VALID,26.2739,VALID,38,VALID,0.953516,
2008-10-26, 00:03:04,VALID,1003.47,VALID,0,VALID,86.8167,VALID,0,VALID,26.2953,VALID,63,VALID,0.643359,
2008-10-26, 00:04:04,VALID,1003.45,VALID,0,VALID,86.8624,VALID,0,VALID,26.2349,VALID,61,VALID,0.515625,
2008-10-26, 00:05:04,VALID,1003.42,VALID,0,VALID,86.9311,VALID,0,VALID,26.2933,VALID,27,VALID,1.83359,
2008-10-26, 00:06:04,VALID,1003.4,VALID,0,VALID,86.7709,VALID,0,VALID,26.3323,VALID,26,VALID,0.819922,
2008-10-26, 00:07:04,VALID,1003.37,VALID,0,VALID,86.7175,VALID,0,VALID,26.3733,VALID,46,VALID,1.58281,
2008-10-26, 00:08:04,VALID,1003.36,VALID,0,VALID,86.6565,VALID,0,VALID,26.3907,VALID,27,VALID,1.19609,
2008-10-26, 00:09:04,VALID,1003.36,VALID,0,VALID,86.7785,VALID,0,VALID,26.3713,VALID,76,VALID,1.16914,
2008-10-26, 00:10:04,VALID,1003.31,VALID,0,VALID,86.7556,VALID,0,VALID,26.3713,VALID,18,VALID,1.13164,
2008-10-26, 00:11:04,VALID,1003.28,VALID,0,VALID,86.9921,VALID,0,VALID,26.3518,VALID,19,VALID,1.65586,
2008-10-26, 00:12:04,VALID,1003.24,VALID,0,VALID,86.954,VALID,0,VALID,26.4297,VALID,33,VALID,1.63437,
2008-10-26, 00:13:04,VALID,1003.2,VALID,0,VALID,86.6259,VALID,0,VALID,26.5291,VALID,24,VALID,1.65273,
2008-10-26, 00:14:04,VALID,1003.16,VALID,0,VALID,86.3208,VALID,0,VALID,26.5876,VALID,40,VALID,0.832812,
2008-10-26, 00:15:04,VALID,1003.16,VALID,0,VALID,86.2216,VALID,0,VALID,26.5876,VALID,23,VALID,1.44844,
2008-10-26, 00:16:04,VALID,1003.13,VALID,0,VALID,86.069,VALID,0,VALID,26.6265,VALID,27,VALID,1.31133,
2008-10-26, 00:17:04,VALID,1003.11,VALID,0,VALID,86.0156,VALID,0,VALID,26.6265,VALID,26,VALID,1.10703,
2008-10-26, 00:18:04,VALID,1003.11,VALID,0,VALID,86.1148,VALID,0,VALID,26.5661,VALID,45,VALID,0.588672,
2008-10-26, 00:19:04,VALID,1003.1,VALID,0,VALID,86.1987,VALID,0,VALID,26.5876,VALID,43,VALID,1.61133,
2008-10-26, 00:20:04,VALID,1003.08,VALID,0,VALID,86.1682,VALID,0,VALID,26.5855,VALID,17,VALID,0.994141,
2008-10-26, 00:21:04,VALID,1003.08,VALID,0,VALID,86.2674,VALID,0,VALID,26.5661,VALID,44,VALID,1.15117,
2008-10-26, 00:22:04,VALID,1003.06,VALID,0,VALID,86.275,VALID,0,VALID,26.5661,VALID,30,VALID,1.23633,
2008-10-26, 00:23:04,VALID,1003.04,VALID,0,VALID,86.2903,VALID,0,VALID,26.5876,VALID,34,VALID,1.52422,
2008-10-26, 00:24:04,VALID,1003,VALID,0,VALID,86.2826,VALID,0,VALID,26.607,VALID,24,VALID,0.864453,
2008-10-26, 00:25:04,VALID,1002.99,VALID,0,VALID,86.2216,VALID,0,VALID,26.605,VALID,28,VALID,0.721875,
2008-10-26, 00:26:04,VALID,1002.97,VALID,0,VALID,86.069,VALID,0,VALID,26.6245,VALID,359,VALID,0.972656,
2008-10-26, 00:27:04,VALID,1002.96,VALID,0,VALID,86.0309,VALID,0,VALID,26.646,VALID,48,VALID,0.605469,
2008-10-26, 00:28:04,VALID,1002.94,VALID,0,VALID,86.0614,VALID,0,VALID,26.605,VALID,21,VALID,1.33242,
2008-10-26, 00:29:04,VALID,1002.95,VALID,0,VALID,85.8936,VALID,0,VALID,26.646,VALID,62,VALID,0.892969,
2008-10-26, 00:30:04,VALID,1002.92,VALID,0,VALID,85.9241,VALID,0,VALID,26.6245,VALID,52,VALID,0.270703,
2008-10-26, 00:31:04,VALID,1002.92,VALID,0,VALID,85.8478,VALID,0,VALID,26.605,VALID,8,VALID,0.378516,
2008-10-26, 00:32:04,VALID,1002.91,VALID,0,VALID,85.8249,VALID,0,VALID,26.5681,VALID,9,VALID,0.460547,
2008-10-26, 00:33:04,VALID,1002.88,VALID,0,VALID,86.0614,VALID,0,VALID,26.5466,VALID,10,VALID,0.0988281,
2008-10-26, 00:34:05,VALID,1002.87,VALID,0,VALID,86.1758,VALID,0,VALID,26.5486,VALID,10,VALID,0.169922,
2008-10-26, 00:35:05,VALID,1002.85,VALID,0,VALID,86.3055,VALID,0,VALID,26.4901,VALID,12,VALID,0.292969,
2008-10-26, 00:36:05,VALID,1002.84,VALID,0,VALID,86.6412,VALID,0,VALID,26.4901,VALID,12,VALID,0.81875,
2008-10-26, 00:37:05,VALID,1002.82,VALID,0,VALID,86.6336,VALID,0,VALID,26.5096,VALID,12,VALID,0.707812,
2008-10-26, 00:38:05,VALID,1002.81,VALID,0,VALID,86.6488,VALID,0,VALID,26.5096,VALID,42,VALID,0.596484,
2008-10-26, 00:39:05,VALID,1002.79,VALID,0,VALID,86.7861,VALID,0,VALID,26.4881,VALID,39,VALID,0.516016,
2008-10-26, 00:40:05,VALID,1002.76,VALID,0,VALID,86.7861,VALID,0,VALID,26.4881,VALID,10,VALID,0.683984,
2008-10-26, 00:41:05,VALID,1002.73,VALID,0,VALID,86.7404,VALID,0,VALID,26.5486,VALID,34,VALID,1.24922,
2008-10-26, 00:42:05,VALID,1002.73,VALID,0,VALID,86.6183,VALID,0,VALID,26.5876,VALID,19,VALID,0.898047,
2008-10-26, 00:43:05,VALID,1002.69,VALID,0,VALID,86.2903,VALID,0,VALID,26.6265,VALID,37,VALID,1.08789,
2008-10-26, 00:44:05,VALID,1002.7,VALID,0,VALID,86.1911,VALID,0,VALID,26.685,VALID,31,VALID,0.816797,
2008-10-26, 00:45:05,VALID,1002.7,VALID,0,VALID,86.2369,VALID,0,VALID,26.644,VALID,21,VALID,0.792188,
2008-10-26, 00:46:05,VALID,1002.73,VALID,0,VALID,86.4047,VALID,0,VALID,26.6245,VALID,338,VALID,0.521875,
2008-10-26, 00:47:05,VALID,1002.7,VALID,0,VALID,86.5725,VALID,0,VALID,26.605,VALID,27,VALID,1.12695,
2008-10-26, 00:48:05,VALID,1002.7,VALID,0,VALID,86.5954,VALID,0,VALID,26.607,VALID,27,VALID,1.08906,
2008-10-26, 00:49:05,VALID,1002.71,VALID,0,VALID,86.542,VALID,0,VALID,26.6675,VALID,26,VALID,0.793359,
2008-10-26, 00:50:05,VALID,1002.68,VALID,0,VALID,86.5954,VALID,0,VALID,26.605,VALID,21,VALID,0.853516,
2008-10-26, 00:51:05,VALID,1002.67,VALID,0,VALID,86.7327,VALID,0,VALID,26.605,VALID,26,VALID,1.23398,
2008-10-26, 00:52:05,VALID,1002.67,VALID,0,VALID,86.5725,VALID,0,VALID,26.7045,VALID,17,VALID,1.53633,
2008-10-26, 00:53:05,VALID,1002.66,VALID,0,VALID,86.5496,VALID,0,VALID,26.683,VALID,25,VALID,1.30625,
2008-10-26, 00:54:05,VALID,1002.66,VALID,0,VALID,86.3971,VALID,0,VALID,26.7219,VALID,27,VALID,2.46523,
2008-10-26, 00:55:05,VALID,1002.62,VALID,0,VALID,86.1072,VALID,0,VALID,26.7998,VALID,28,VALID,1.61797,
2008-10-26, 00:56:05,VALID,1002.62,VALID,0,VALID,86.1224,VALID,0,VALID,26.7804,VALID,21,VALID,1.07578,
2008-10-26, 00:57:05,VALID,1002.61,VALID,0,VALID,86.0843,VALID,0,VALID,26.7609,VALID,20,VALID,2.39883,
2008-10-26, 00:58:05,VALID,1002.63,VALID,0,VALID,86.1606,VALID,0,VALID,26.8019,VALID,15,VALID,1.06836,
2008-10-26, 00:59:05,VALID,1002.6,VALID,0,VALID,86.2598,VALID,0,VALID,26.8019,VALID,32,VALID,1.69336,
2008-10-26, 01:00:05,VALID,1002.59,VALID,0,VALID,86.4352,VALID,0,VALID,26.7609,VALID,360,VALID,1.27734,
2008-10-26, 01:01:05,VALID,1002.6,VALID,0,VALID,86.5649,VALID,0,VALID,26.7024,VALID,26,VALID,1.64531,
2008-10-26, 01:02:05,VALID,1002.59,VALID,0,VALID,86.687,VALID,0,VALID,26.7024,VALID,22,VALID,1.47852,
2008-10-26, 01:03:05,VALID,1002.58,VALID,0,VALID,86.5039,VALID,0,VALID,26.7024,VALID,30,VALID,1.6082,
2008-10-26, 01:04:05,VALID,1002.57,VALID,0,VALID,86.3055,VALID,0,VALID,26.7824,VALID,24,VALID,1.20859,
2008-10-26, 01:05:05,VALID,1002.57,VALID,0,VALID,86.2369,VALID,0,VALID,26.7824,VALID,32,VALID,1.56133,
2008-10-26, 01:06:05,VALID,1002.52,VALID,0,VALID,86.2826,VALID,0,VALID,26.7609,VALID,23,VALID,1.67656,
2008-10-26, 01:07:05,VALID,1002.53,VALID,0,VALID,86.3437,VALID,0,VALID,26.7804,VALID,10,VALID,1.21328,
2008-10-26, 01:08:05,VALID,1002.54,VALID,0,VALID,86.3894,VALID,0,VALID,26.7219,VALID,27,VALID,0.944531,
2008-10-26, 01:09:05,VALID,1002.49,VALID,0,VALID,86.4505,VALID,0,VALID,26.7434,VALID,26,VALID,1.20273,
2008-10-26, 01:10:05,VALID,1002.48,VALID,0,VALID,86.4505,VALID,0,VALID,26.7024,VALID,11,VALID,1.12734,
2008-10-26, 01:11:05,VALID,1002.45,VALID,0,VALID,86.5268,VALID,0,VALID,26.7024,VALID,8,VALID,1.8418,
2008-10-26, 01:12:05,VALID,1002.48,VALID,0,VALID,86.6793,VALID,0,VALID,26.7045,VALID,1,VALID,0.920703,
2008-10-26, 01:13:05,VALID,1002.49,VALID,0,VALID,86.7556,VALID,0,VALID,26.6655,VALID,30,VALID,1.21211,
2008-10-26, 01:14:05,VALID,1002.5,VALID,0,VALID,86.9235,VALID,0,VALID,26.646,VALID,359,VALID,0.915234,
2008-10-26, 01:15:05,VALID,1002.5,VALID,0,VALID,86.954,VALID,0,VALID,26.646,VALID,1,VALID,1.00195,
2008-10-26, 01:16:05,VALID,1002.49,VALID,0,VALID,86.9006,VALID,0,VALID,26.646,VALID,346,VALID,1.87852,
2008-10-26, 01:17:05,VALID,1002.51,VALID,0,VALID,86.9006,VALID,0,VALID,26.685,VALID,36,VALID,1.32695,
2008-10-26, 01:18:05,VALID,1002.55,VALID,0,VALID,86.954,VALID,0,VALID,26.644,VALID,9,VALID,1.05,
2008-10-26, 01:19:05,VALID,1002.52,VALID,0,VALID,87.0989,VALID,0,VALID,26.6245,VALID,26,VALID,1.31602,
2008-10-26, 01:20:05,VALID,1002.56,VALID,0,VALID,87.16,VALID,0,VALID,26.6265,VALID,27,VALID,1.30781,
2008-10-26, 01:21:05,VALID,1002.55,VALID,0,VALID,87.3278,VALID,0,VALID,26.5855,VALID,13,VALID,1.67305,
2008-10-26, 01:22:05,VALID,1002.56,VALID,0,VALID,87.2896,VALID,0,VALID,26.646,VALID,59,VALID,0.976953,
2008-10-26, 01:23:05,VALID,1002.56,VALID,0,VALID,87.1371,VALID,0,VALID,26.6655,VALID,33,VALID,1.31758,
2008-10-26, 01:24:05,VALID,1002.59,VALID,0,VALID,87.1371,VALID,0,VALID,26.644,VALID,9,VALID,0.657422,
2008-10-26, 01:25:05,VALID,1002.56,VALID,0,VALID,87.3202,VALID,0,VALID,26.6245,VALID,21,VALID,1.36602,
2008-10-26, 01:26:05,VALID,1002.57,VALID,0,VALID,87.3888,VALID,0,VALID,26.6265,VALID,17,VALID,0.814062,
2008-10-26, 01:27:05,VALID,1002.57,VALID,0,VALID,87.549,VALID,0,VALID,26.607,VALID,30,VALID,1.08359,
2008-10-26, 01:28:05,VALID,1002.58,VALID,0,VALID,87.6406,VALID,0,VALID,26.5876,VALID,33,VALID,1.53047,
2008-10-26, 01:29:05,VALID,1002.58,VALID,0,VALID,87.755,VALID,0,VALID,26.5681,VALID,15,VALID,0.873828,
2008-10-26, 01:30:05,VALID,1002.56,VALID,0,VALID,87.9381,VALID,0,VALID,26.5076,VALID,23,VALID,1.15859,
2008-10-26, 01:31:05,VALID,1002.56,VALID,0,VALID,88.0602,VALID,0,VALID,26.5076,VALID,28,VALID,2.15039,
2008-10-26, 01:32:05,VALID,1002.55,VALID,0,VALID,88.0449,VALID,0,VALID,26.5076,VALID,24,VALID,0.979297,
2008-10-26, 01:33:05,VALID,1002.57,VALID,0,VALID,88.2127,VALID,0,VALID,26.4687,VALID,9,VALID,1.11641,
2008-10-26, 01:34:05,VALID,1002.54,VALID,0,VALID,88.3272,VALID,0,VALID,26.4707,VALID,24,VALID,0.838672,
2008-10-26, 01:35:05,VALID,1002.56,VALID,0,VALID,88.4416,VALID,0,VALID,26.4512,VALID,14,VALID,0.800391,
2008-10-26, 01:36:05,VALID,1002.57,VALID,0,VALID,88.5637,VALID,0,VALID,26.4727,VALID,359,VALID,0.9375,
2008-10-26, 01:37:05,VALID,1002.56,VALID,0,VALID,88.6171,VALID,0,VALID,26.4297,VALID,34,VALID,0.939062,
2008-10-26, 01:38:05,VALID,1002.59,VALID,0,VALID,88.6628,VALID,0,VALID,26.4102,VALID,358,VALID,0.720703,
2008-10-26, 01:39:05,VALID,1002.56,VALID,0,VALID,88.7697,VALID,0,VALID,26.4317,VALID,12,VALID,0.723437,
2008-10-26, 01:40:05,VALID,1002.59,VALID,0,VALID,88.8383,VALID,0,VALID,26.3927,VALID,23,VALID,0.860937,
2008-10-26, 01:41:05,VALID,1002.59,VALID,0,VALID,88.907,VALID,0,VALID,26.4122,VALID,8,VALID,0.900781,
2008-10-26, 01:42:05,VALID,1002.58,VALID,0,VALID,88.8231,VALID,0,VALID,26.4102,VALID,33,VALID,1.1957,
2008-10-26, 01:43:05,VALID,1002.59,VALID,0,VALID,88.7391,VALID,0,VALID,26.4707,VALID,33,VALID,1.25312,
2008-10-26, 01:44:05,VALID,1002.59,VALID,0,VALID,88.5103,VALID,0,VALID,26.5291,VALID,18,VALID,2.24766,
2008-10-26, 01:45:05,VALID,1002.6,VALID,0,VALID,88.1975,VALID,0,VALID,26.5661,VALID,19,VALID,1.46523,
2008-10-26, 01:46:05,VALID,1002.55,VALID,0,VALID,87.9762,VALID,0,VALID,26.6265,VALID,34,VALID,1.86484,
2008-10-26, 01:47:05,VALID,1002.57,VALID,0,VALID,87.8618,VALID,0,VALID,26.6265,VALID,37,VALID,1.33359,
2008-10-26, 01:48:05,VALID,1002.56,VALID,0,VALID,87.8923,VALID,0,VALID,26.605,VALID,42,VALID,0.878125,
2008-10-26, 01:49:05,VALID,1002.53,VALID,0,VALID,88.0296,VALID,0,VALID,26.5855,VALID,34,VALID,0.721094,
2008-10-26, 01:50:05,VALID,1002.53,VALID,0,VALID,88.0449,VALID,0,VALID,26.5855,VALID,21,VALID,1.49023,
2008-10-26, 01:51:05,VALID,1002.53,VALID,0,VALID,88.1136,VALID,0,VALID,26.5876,VALID,28,VALID,0.467969,
2008-10-26, 01:52:05,VALID,1002.49,VALID,0,VALID,88.2433,VALID,0,VALID,26.5876,VALID,19,VALID,0.951563,
2008-10-26, 01:53:05,VALID,1002.47,VALID,0,VALID,88.167,VALID,0,VALID,26.5876,VALID,8,VALID,0.9875,
2008-10-26, 01:54:05,VALID,1002.46,VALID,0,VALID,88.1136,VALID,0,VALID,26.5681,VALID,34,VALID,1.0832,
2008-10-26, 01:55:05,VALID,1002.44,VALID,0,VALID,88.2967,VALID,0,VALID,26.5076,VALID,30,VALID,1.41406,
2008-10-26, 01:56:05,VALID,1002.41,VALID,0,VALID,88.228,VALID,0,VALID,26.5291,VALID,21,VALID,1.63242,
2008-10-26, 01:57:05,VALID,1002.38,VALID,0,VALID,88.3119,VALID,0,VALID,26.5076,VALID,28,VALID,1.13672,
2008-10-26, 01:58:05,VALID,1002.34,VALID,0,VALID,88.3806,VALID,0,VALID,26.5096,VALID,41,VALID,0.777734,
2008-10-26, 01:59:05,VALID,1002.32,VALID,0,VALID,88.3501,VALID,0,VALID,26.5096,VALID,30,VALID,1.07383,
2008-10-26, 02:00:05,VALID,1002.33,VALID,0,VALID,88.3424,VALID,0,VALID,26.4901,VALID,24,VALID,1.50508,
2008-10-26, 02:01:05,VALID,1002.29,VALID,0,VALID,88.4492,VALID,0,VALID,26.4901,VALID,29,VALID,1.47383,
2008-10-26, 02:02:05,VALID,1002.29,VALID,0,VALID,88.5255,VALID,0,VALID,26.4881,VALID,25,VALID,1.0707,
2008-10-26, 02:03:05,VALID,1002.25,VALID,0,VALID,88.5789,VALID,0,VALID,26.5311,VALID,360,VALID,0.673437,
2008-10-26, 02:04:05,VALID,1002.23,VALID,0,VALID,88.5484,VALID,0,VALID,26.5096,VALID,27,VALID,0.932422,
2008-10-26, 02:05:05,VALID,1002.23,VALID,0,VALID,88.4721,VALID,0,VALID,26.5096,VALID,18,VALID,0.887891,
2008-10-26, 02:06:05,VALID,1002.21,VALID,0,VALID,88.5408,VALID,0,VALID,26.5291,VALID,25,VALID,1.00234,
2008-10-26, 02:07:05,VALID,1002.18,VALID,0,VALID,88.5866,VALID,0,VALID,26.5096,VALID,20,VALID,0.818359,
2008-10-26, 02:08:05,VALID,1002.16,VALID,0,VALID,88.3424,VALID,0,VALID,26.5486,VALID,28,VALID,0.948828,
2008-10-26, 02:09:05,VALID,1002.17,VALID,0,VALID,88.2814,VALID,0,VALID,26.5876,VALID,17,VALID,0.776172,
2008-10-26, 02:10:05,VALID,1002.11,VALID,0,VALID,88.0983,VALID,0,VALID,26.605,VALID,18,VALID,1.09531,
2008-10-26, 02:11:05,VALID,1002.1,VALID,0,VALID,87.9534,VALID,0,VALID,26.646,VALID,27,VALID,1.06094,
2008-10-26, 02:12:05,VALID,1002.08,VALID,0,VALID,87.8313,VALID,0,VALID,26.6655,VALID,357,VALID,0.960938,
2008-10-26, 02:13:05,VALID,1002.06,VALID,0,VALID,87.7092,VALID,0,VALID,26.685,VALID,2,VALID,1.14141,
2008-10-26, 02:14:05,VALID,1002.03,VALID,0,VALID,87.549,VALID,0,VALID,26.7045,VALID,360,VALID,0.552734,
2008-10-26, 02:15:05,VALID,1002.01,VALID,0,VALID,87.3354,VALID,0,VALID,26.7239,VALID,21,VALID,1.0293,
2008-10-26, 02:16:05,VALID,1001.98,VALID,0,VALID,87.3583,VALID,0,VALID,26.7024,VALID,356,VALID,0.846484,
2008-10-26, 02:17:05,VALID,1001.93,VALID,0,VALID,87.3507,VALID,0,VALID,26.7239,VALID,5,VALID,0.927734,
2008-10-26, 02:18:05,VALID,1001.93,VALID,0,VALID,87.0989,VALID,0,VALID,26.7219,VALID,18,VALID,1.4,
2008-10-26, 02:19:05,VALID,1001.9,VALID,0,VALID,86.9769,VALID,0,VALID,26.7649,VALID,341,VALID,1.3543,
2008-10-26, 02:20:05,VALID,1001.86,VALID,0,VALID,86.9158,VALID,0,VALID,26.7609,VALID,25,VALID,1.4957,
2008-10-26, 02:21:05,VALID,1001.86,VALID,0,VALID,86.9311,VALID,0,VALID,26.7824,VALID,12,VALID,0.712109,
2008-10-26, 02:22:05,VALID,1001.84,VALID,0,VALID,87.076,VALID,0,VALID,26.7629,VALID,12,VALID,0.489844,
2008-10-26, 02:23:05,VALID,1001.82,VALID,0,VALID,87.1294,VALID,0,VALID,26.7434,VALID,43,VALID,0.871875,
2008-10-26, 02:24:05,VALID,1001.79,VALID,0,VALID,87.0989,VALID,0,VALID,26.7629,VALID,32,VALID,1.3418,
2008-10-26, 02:25:05,VALID,1001.76,VALID,0,VALID,86.9464,VALID,0,VALID,26.7239,VALID,30,VALID,1.34453,
2008-10-26, 02:26:05,VALID,1001.78,VALID,0,VALID,87.0455,VALID,0,VALID,26.7434,VALID,6,VALID,0.896484,
2008-10-26, 02:27:05,VALID,1001.76,VALID,0,VALID,86.5649,VALID,0,VALID,26.7629,VALID,13,VALID,1.44844,
2008-10-26, 02:28:05,VALID,1001.72,VALID,0,VALID,86.5268,VALID,0,VALID,26.7824,VALID,21,VALID,1.16602,
2008-10-26, 02:29:05,VALID,1001.69,VALID,0,VALID,86.5191,VALID,0,VALID,26.8019,VALID,20,VALID,0.786719,
2008-10-26, 02:30:05,VALID,1001.67,VALID,0,VALID,86.6488,VALID,0,VALID,26.7824,VALID,14,VALID,0.434766,
2008-10-26, 02:31:05,VALID,1001.62,VALID,0,VALID,86.8243,VALID,0,VALID,26.7414,VALID,3,VALID,1.30703,
2008-10-26, 02:32:05,VALID,1001.64,VALID,0,VALID,86.8701,VALID,0,VALID,26.7434,VALID,37,VALID,1.11719,
2008-10-26, 02:33:05,VALID,1001.61,VALID,0,VALID,86.9082,VALID,0,VALID,26.7239,VALID,5,VALID,0.892187,
2008-10-26, 02:34:05,VALID,1001.62,VALID,0,VALID,87.0074,VALID,0,VALID,26.7239,VALID,28,VALID,0.519531,
2008-10-26, 02:35:05,VALID,1001.62,VALID,0,VALID,87.0608,VALID,0,VALID,26.7045,VALID,21,VALID,1.22578,
2008-10-26, 02:36:05,VALID,1001.62,VALID,0,VALID,86.9235,VALID,0,VALID,26.7239,VALID,9,VALID,0.75625,
2008-10-26, 02:37:05,VALID,1001.63,VALID,0,VALID,86.7709,VALID,0,VALID,26.7629,VALID,33,VALID,0.58125,
2008-10-26, 02:38:05,VALID,1001.65,VALID,0,VALID,86.7251,VALID,0,VALID,26.7844,VALID,32,VALID,0.578516,
2008-10-26, 02:39:05,VALID,1001.67,VALID,0,VALID,86.8395,VALID,0,VALID,26.7239,VALID,19,VALID,0.440234,
2008-10-26, 02:40:05,VALID,1001.67,VALID,0,VALID,86.9616,VALID,0,VALID,26.7045,VALID,18,VALID,0.434375,
2008-10-26, 02:41:05,VALID,1001.65,VALID,0,VALID,87.1142,VALID,0,VALID,26.6635,VALID,18,VALID,0.256641,
2008-10-26, 02:42:05,VALID,1001.66,VALID,0,VALID,87.2515,VALID,0,VALID,26.646,VALID,40,VALID,0.651172,
2008-10-26, 02:43:05,VALID,1001.68,VALID,0,VALID,87.282,VALID,0,VALID,26.6265,VALID,46,VALID,0.641797,
2008-10-26, 02:44:05,VALID,1001.66,VALID,0,VALID,87.4346,VALID,0,VALID,26.607,VALID,14,VALID,0.732422,
2008-10-26, 02:45:05,VALID,1001.67,VALID,0,VALID,87.488,VALID,0,VALID,26.5876,VALID,85,VALID,0.944531,
2008-10-26, 02:46:05,VALID,1001.66,VALID,0,VALID,87.549,VALID,0,VALID,26.5876,VALID,56,VALID,0.720312,
2008-10-26, 02:47:05,VALID,1001.64,VALID,0,VALID,87.5338,VALID,0,VALID,26.5876,VALID,91,VALID,1.00117,
2008-10-26, 02:48:05,VALID,1001.64,VALID,0,VALID,87.488,VALID,0,VALID,26.5681,VALID,111,VALID,0.853516,
2008-10-26, 02:49:05,VALID,1001.61,VALID,0,VALID,87.6101,VALID,0,VALID,26.4317,VALID,119,VALID,0.768359,
2008-10-26, 02:50:05,VALID,1001.61,VALID,0,VALID,88.0602,VALID,0,VALID,26.3148,VALID,121,VALID,0.591797,
2008-10-26, 02:51:05,VALID,1001.61,VALID,0,VALID,88.5179,VALID,0,VALID,26.1959,VALID,121,VALID,0.244531,
2008-10-26, 02:52:05,VALID,1001.58,VALID,0,VALID,88.9756,VALID,0,VALID,26.1395,VALID,119,VALID,0.276563,
2008-10-26, 02:53:05,VALID,1001.53,VALID,0,VALID,89.2503,VALID,0,VALID,26.0616,VALID,119,VALID,0.440625,
2008-10-26, 02:54:05,VALID,1001.52,VALID,0,VALID,89.5554,VALID,0,VALID,26.0226,VALID,120,VALID,0.417969,
2008-10-26, 02:55:05,VALID,1001.56,VALID,0,VALID,89.7996,VALID,0,VALID,25.9836,VALID,133,VALID,0.228125,
2008-10-26, 02:56:05,VALID,1001.56,VALID,0,VALID,89.9445,VALID,0,VALID,25.9447,VALID,133,VALID,0.197656,
2008-10-26, 02:57:05,VALID,1001.55,VALID,0,VALID,90.1047,VALID,0,VALID,25.8863,VALID,133,VALID,0,
2008-10-26, 02:58:05,VALID,1001.52,VALID,0,VALID,90.2954,VALID,0,VALID,25.8668,VALID,133,VALID,0.0015625,
2008-10-26, 02:59:05,VALID,1001.57,VALID,0,VALID,90.5396,VALID,0,VALID,25.8473,VALID,133,VALID,0.144922,
2008-10-26, 03:00:05,VALID,1001.56,VALID,0,VALID,90.6006,VALID,0,VALID,25.8278,VALID,133,VALID,0.0617188,
2008-10-26, 03:01:05,VALID,1001.56,VALID,0,VALID,90.7226,VALID,0,VALID,25.8083,VALID,133,VALID,0.169531,
2008-10-26, 03:02:05,VALID,1001.56,VALID,0,VALID,90.7913,VALID,0,VALID,25.7889,VALID,176,VALID,0.554688,
2008-10-26, 03:03:05,VALID,1001.57,VALID,0,VALID,90.8752,VALID,0,VALID,25.7499,VALID,211,VALID,0,
2008-10-26, 03:04:05,VALID,1001.59,VALID,0,VALID,90.9744,VALID,0,VALID,25.7304,VALID,211,VALID,0,
2008-10-26, 03:05:05,VALID,1001.62,VALID,0,VALID,91.1499,VALID,0,VALID,25.672,VALID,211,VALID,0.00195313,
2008-10-26, 03:06:05,VALID,1001.6,VALID,0,VALID,91.3177,VALID,0,VALID,25.672,VALID,211,VALID,0.0105469,
2008-10-26, 03:07:05,VALID,1001.66,VALID,0,VALID,91.3253,VALID,0,VALID,25.633,VALID,211,VALID,0,
2008-10-26, 03:08:05,VALID,1001.63,VALID,0,VALID,91.4474,VALID,0,VALID,25.5941,VALID,211,VALID,0.258984,
2008-10-26, 03:09:05,VALID,1001.65,VALID,0,VALID,91.6457,VALID,0,VALID,25.5337,VALID,206,VALID,0.283984,
2008-10-26, 03:10:05,VALID,1001.63,VALID,0,VALID,91.7831,VALID,0,VALID,25.4948,VALID,206,VALID,0,
2008-10-26, 03:11:05,VALID,1001.64,VALID,0,VALID,91.8975,VALID,0,VALID,25.4558,VALID,206,VALID,0.00234375,
2008-10-26, 03:12:05,VALID,1001.65,VALID,0,VALID,92.0882,VALID,0,VALID,25.4363,VALID,206,VALID,0.000390625,
2008-10-26, 03:13:05,VALID,1001.66,VALID,0,VALID,92.2408,VALID,0,VALID,25.3974,VALID,206,VALID,0.222266,
2008-10-26, 03:14:05,VALID,1001.65,VALID,0,VALID,92.3018,VALID,0,VALID,25.3993,VALID,206,VALID,0.367969,
2008-10-26, 03:15:05,VALID,1001.67,VALID,0,VALID,92.3629,VALID,0,VALID,25.339,VALID,206,VALID,0.059375,
2008-10-26, 03:16:04,VALID,1001.67,VALID,0,VALID,92.4163,VALID,0,VALID,25.3214,VALID,206,VALID,0,
2008-10-26, 03:17:04,VALID,1001.67,VALID,0,VALID,92.5231,VALID,0,VALID,25.2806,VALID,206,VALID,0,
2008-10-26, 03:18:04,VALID,1001.64,VALID,0,VALID,92.6528,VALID,0,VALID,25.263,VALID,206,VALID,0,
2008-10-26, 03:19:04,VALID,1001.65,VALID,0,VALID,92.7367,VALID,0,VALID,25.263,VALID,206,VALID,0.00820312,
2008-10-26, 03:20:04,VALID,1001.65,VALID,0,VALID,92.7519,VALID,0,VALID,25.263,VALID,206,VALID,0.0726563,
2008-10-26, 03:21:04,VALID,1001.61,VALID,0,VALID,92.8664,VALID,0,VALID,25.224,VALID,206,VALID,0.0777344,
2008-10-26, 03:22:04,VALID,1001.62,VALID,0,VALID,93.0266,VALID,0,VALID,25.1832,VALID,206,VALID,0.000390625,
2008-10-26, 03:23:04,VALID,1001.58,VALID,0,VALID,93.08,VALID,0,VALID,25.2046,VALID,206,VALID,0,
2008-10-26, 03:24:04,VALID,1001.58,VALID,0,VALID,93.1486,VALID,0,VALID,25.2046,VALID,206,VALID,0.100781,
2008-10-26, 03:25:04,VALID,1001.56,VALID,0,VALID,93.141,VALID,0,VALID,25.1832,VALID,206,VALID,0.101172,
2008-10-26, 03:26:04,VALID,1001.53,VALID,0,VALID,93.2478,VALID,0,VALID,25.1637,VALID,206,VALID,0.538672,
2008-10-26, 03:27:04,VALID,1001.55,VALID,0,VALID,93.3012,VALID,0,VALID,25.1637,VALID,206,VALID,0.280859,
2008-10-26, 03:28:04,VALID,1001.58,VALID,0,VALID,93.4309,VALID,0,VALID,25.1637,VALID,206,VALID,0.111719,
2008-10-26, 03:29:04,VALID,1001.61,VALID,0,VALID,93.4309,VALID,0,VALID,25.2046,VALID,206,VALID,0,
2008-10-26, 03:30:04,VALID,1001.61,VALID,0,VALID,93.3851,VALID,0,VALID,25.1637,VALID,206,VALID,0,
2008-10-26, 03:31:04,VALID,1001.61,VALID,0,VALID,93.4385,VALID,0.100563,VALID,25.1442,VALID,206,VALID,0,
2008-10-26, 03:32:04,VALID,1001.65,VALID,0,VALID,93.4233,VALID,0.100563,VALID,25.1248,VALID,206,VALID,0,
2008-10-26, 03:33:04,VALID,1001.65,VALID,0,VALID,93.4462,VALID,0,VALID,25.1053,VALID,206,VALID,0,
2008-10-26, 03:34:04,VALID,1001.64,VALID,0,VALID,93.4996,VALID,0,VALID,25.0644,VALID,206,VALID,0,
2008-10-26, 03:35:04,VALID,1001.64,VALID,0,VALID,93.5072,VALID,0,VALID,25.0858,VALID,206,VALID,0,
2008-10-26, 03:36:04,VALID,1001.65,VALID,0,VALID,93.5377,VALID,0,VALID,25.0663,VALID,206,VALID,0,
2008-10-26, 03:37:04,VALID,1001.64,VALID,0,VALID,93.5072,VALID,0,VALID,25.0255,VALID,206,VALID,0,
2008-10-26, 03:38:04,VALID,1001.65,VALID,0,VALID,93.5224,VALID,0,VALID,25.0274,VALID,206,VALID,0.467578,
2008-10-26, 03:39:04,VALID,1001.67,VALID,0,VALID,93.4385,VALID,0,VALID,24.9885,VALID,206,VALID,0.364844,
2008-10-26, 03:40:04,VALID,1001.71,VALID,0,VALID,93.5072,VALID,0.100563,VALID,24.9495,VALID,206,VALID,0.354688,
2008-10-26, 03:41:04,VALID,1001.71,VALID,0,VALID,93.614,VALID,0,VALID,24.9106,VALID,206,VALID,0.201562,
2008-10-26, 03:42:04,VALID,1001.74,VALID,0,VALID,93.7132,VALID,0,VALID,24.9319,VALID,206,VALID,0,
2008-10-26, 03:43:04,VALID,1001.77,VALID,0,VALID,93.7513,VALID,0,VALID,24.9106,VALID,206,VALID,0,
2008-10-26, 03:44:04,VALID,1001.8,VALID,0,VALID,93.7132,VALID,0,VALID,24.8716,VALID,206,VALID,0,
2008-10-26, 03:45:04,VALID,1001.84,VALID,0,VALID,93.7895,VALID,0,VALID,24.8503,VALID,206,VALID,0.240234,
2008-10-26, 03:46:04,VALID,1001.84,VALID,0,VALID,93.9115,VALID,0,VALID,24.8735,VALID,206,VALID,0.172266,
2008-10-26, 03:47:04,VALID,1001.85,VALID,0,VALID,94.0946,VALID,0,VALID,24.8716,VALID,206,VALID,0.311328,
2008-10-26, 03:48:04,VALID,1001.88,VALID,0,VALID,94.1099,VALID,0,VALID,24.9106,VALID,207,VALID,0.323438,